Voltar ao catálogo

STARLINK-32605

AtivoComunicaçõesVLEO
NORAD 61921·PAYLOAD·🇺🇸 United States

Lançado Nov 11, 2024 de Cape Canaveral Space Force Station

Loading…

Próximas Passagens (próximas 24 horas)

TLE

AtualizadoSource: CelesTrak SupGP

Época: Sep 14, 2026, 21:17 UTC

1 61921C 24207K   26257.88729167 -.00007714  00000+0 -27946-3 0  2572
2 61921  43.0002 293.0721 0001524 271.7072 299.2401 15.27573581    14

Acompanhe STARLINK-32605 em tempo real com AllMySat

Download on the App Store